Location: Unspecified
(0.0000°N, 0.0000°E)
Time: 12:38:22
(UTC+00:00)

deb r/b Ablestar - Pass Details

Date: 13 April 2026
Orbit: 834 x 1371 km, 65.9° (Epoch: 10 May)

Event Time Altitude Azimuth Distance (km) Brightness Sun altitude
Rises 05:27:54 0° 201° (SSW) 3,832 ? -8.1°
Reaches altitude 10° 05:30:23 10° 202° (SSW) 2,948 ? -7.5°
Maximum altitude 05:37:29 86° 289° (WNW) 1,209 ? -5.7°
Drops below altitude 10° 05:45:32 10° 19° (NNE) 3,310 ? -3.7°
Sets 05:48:28 0° 20° (NNE) 4,326 ? -3.0°
